"Pseudo-MPEC" for ZTF01a7

Created 2018 Oct 16 22:18:18 UT using Find_Orb

Click here for an explanation of pseudo-MPECs

 
 Astrometry: 
     ZTF01a7  C2018 10 09.11943621 06 37.12 +23 55 19.9                UNEOCPI41
     ZTF01a7  C2018 10 09.18495821 12 03.46 +22 53 28.0          18.34RUNEOCPI41
     ZTF01a7  C2018 10 09.18530521 12 05.20 +22 53 08.1          18.34RUNEOCPI41

Station data:
(I41) Palomar Mountain--ZTF  (N33.357340 W116.859780)  US/California. 1.2-m
   f/2.44 Oschin Schmidt + CCD.

Orbital elements:  ZTF01a7
   Perihelion 2018 Jul 23.187688 +/- 24.9 TT =  4:30:16 (JD 2458322.687688)
Epoch 2018 Oct  9.0 TT = JDT 2458400.5   Earth MOID: 0.0037   AutoNEOCP
M  74.27558 +/- 36                  (J2000 ecliptic)
n   0.95454803 +/- 0.592            Peri.   89.88704 +/- 70
a   1.02157641 +/- 0.422            Node   197.30039 +/- 80
e   0.1201588 +/- 0.241             Incl.    7.09513 +/- 20
P   1.03/377.13d           H 27.5   G  0.15   U 12.4  SR
q 0.89882499 +/- 0.315    Q 1.14432782 +/- 39.6
From 3 observations 2018 Oct. 9 (94.9 min); mean residual 0".10
Residuals in arcseconds: 
181009 I41  .00   .00     181009 I41  .18-  .02-    181009 I41  .18+  .02+    

Ephemerides (geocentric):
Date (UTC) HH   RA              Dec         delta   r     elong  mag " sig PA
---- -- -- --  -------------   -----------  ------ ------ -----  --- ---- ---
2018 10 16 22  00 57 16.618   -24 01 40.99  .02618 1.0186 146.2 21.0  41d  22
2018 10 16 23  00 57 33.758   -24 04 21.48  .02631 1.0187 146.2 21.1  41d  22
2018 10 17 00  00 57 50.745   -24 07 00.14  .02644 1.0188 146.1 21.1  41d  22
2018 10 17 01  00 58 07.582   -24 09 36.99  .02657 1.0189 146.1 21.1  41d  22
2018 10 17 02  00 58 24.269   -24 12 12.05  .02670 1.0190 146.0 21.1  41d  22
2018 10 17 03  00 58 40.809   -24 14 45.35  .02683 1.0190 146.0 21.1  41d  22
2018 10 17 04  00 58 57.204   -24 17 16.92  .02696 1.0191 145.9 21.1  41d  22
2018 10 17 05  00 59 13.456   -24 19 46.77  .02709 1.0192 145.9 21.1  41d  22
2018 10 17 06  00 59 29.566   -24 22 14.95  .02722 1.0193 145.8 21.1  41d  22
2018 10 17 07  00 59 45.537   -24 24 41.46  .02735 1.0194 145.8 21.2  41d  22
2018 10 17 08  01 00 01.369   -24 27 06.34  .02748 1.0195 145.7 21.2  41d  22
2018 10 17 09  01 00 17.066   -24 29 29.60  .02761 1.0195 145.7 21.2  41d  22
2018 10 17 10  01 00 32.628   -24 31 51.27  .02774 1.0196 145.6 21.2  41d  22
2018 10 17 11  01 00 48.058   -24 34 11.38  .02787 1.0197 145.6 21.2  41d  22
2018 10 17 12  01 01 03.356   -24 36 29.93  .02800 1.0198 145.5 21.2  41d  22
2018 10 17 13  01 01 18.525   -24 38 46.96  .02813 1.0199 145.5 21.2  41d  22
2018 10 17 14  01 01 33.566   -24 41 02.49  .02826 1.0200 145.4 21.2  41d  22
2018 10 17 15  01 01 48.482   -24 43 16.53  .02839 1.0200 145.4 21.2  41d  22
2018 10 17 16  01 02 03.272   -24 45 29.11  .02852 1.0201 145.3 21.3  41d  22
2018 10 17 17  01 02 17.940   -24 47 40.24  .02865 1.0202 145.3 21.3  41d  22
2018 10 17 18  01 02 32.486   -24 49 49.95  .02878 1.0203 145.2 21.3  41d  22
2018 10 17 19  01 02 46.911   -24 51 58.25  .02891 1.0204 145.2 21.3  41d  22
2018 10 17 20  01 03 01.219   -24 54 05.17  .02905 1.0205 145.1 21.3  41d  22
2018 10 17 21  01 03 15.409   -24 56 10.72  .02918 1.0205 145.1 21.3  41d  22
2018 10 17 22  01 03 29.483   -24 58 14.92  .02931 1.0206 145.0 21.3  41d  22
2018 10 17 23  01 03 43.443   -25 00 17.79  .02944 1.0207 145.0 21.3  41d  22
2018 10 18 00  01 03 57.290   -25 02 19.34  .02957 1.0208 145.0 21.3  41d  22
2018 10 18 01  01 04 11.026   -25 04 19.60  .02970 1.0209 144.9 21.4  41d  22
2018 10 18 02  01 04 24.651   -25 06 18.57  .02983 1.0210 144.9 21.4  41d  22
2018 10 18 03  01 04 38.167   -25 08 16.29  .02996 1.0210 144.8 21.4  41d  22
2018 10 18 04  01 04 51.576   -25 10 12.75  .03010 1.0211 144.8 21.4  41d  22
2018 10 18 05  01 05 04.878   -25 12 07.99  .03023 1.0212 144.7 21.4  41d  22
2018 10 18 06  01 05 18.075   -25 14 02.01  .03036 1.0213 144.7 21.4  41d  22
2018 10 18 07  01 05 31.168   -25 15 54.83  .03049 1.0214 144.7 21.4  41d  22
2018 10 18 08  01 05 44.158   -25 17 46.47  .03062 1.0215 144.6 21.4  41d  22
2018 10 18 09  01 05 57.047   -25 19 36.94  .03075 1.0215 144.6 21.4  41d  22
2018 10 18 10  01 06 09.836   -25 21 26.25  .03088 1.0216 144.5 21.5  41d  22
2018 10 18 11  01 06 22.525   -25 23 14.43  .03102 1.0217 144.5 21.5  41d  22
2018 10 18 12  01 06 35.117   -25 25 01.47  .03115 1.0218 144.4 21.5  41d  22
2018 10 18 13  01 06 47.611   -25 26 47.41  .03128 1.0219 144.4 21.5  41d  22
2018 10 18 14  01 07 00.010   -25 28 32.25  .03141 1.0220 144.4 21.5  41d  22
2018 10 18 15  01 07 12.314   -25 30 16.00  .03154 1.0221 144.3 21.5  41d  22
2018 10 18 16  01 07 24.525   -25 31 58.69  .03168 1.0221 144.3 21.5  41d  22
2018 10 18 17  01 07 36.643   -25 33 40.31  .03181 1.0222 144.2 21.5  41d  22
2018 10 18 18  01 07 48.669   -25 35 20.89  .03194 1.0223 144.2 21.5  41d  22
2018 10 18 19  01 08 00.605   -25 37 00.44  .03207 1.0224 144.2 21.5  41d  22
2018 10 18 20  01 08 12.452   -25 38 38.97  .03220 1.0225 144.1 21.6  41d  22
2018 10 18 21  01 08 24.210   -25 40 16.49  .03234 1.0226 144.1 21.6  41d  22